Location: Bagnolo San Vito
(45.0833°N, 10.8833°E)
Time: 23:18:26
(UTC+00:00)

USA 186 - Pass Details

Date: 03 March 2021
Orbit: 261 x 429 km, 96.9° (Epoch: 15 April)

Event Time Altitude Azimuth Distance (km) Brightness Sun altitude
Exits shadow 18:28:20 15° 19° (NNE) 919 3.3 -15.2°
Drops below altitude 10° 18:28:59 10° 10° (N) 1,161 3.9 -15.3°
Sets 18:31:01 0° 358° (N) 2,022 5.3 -15.7°
